PBO Station Position Time Series. Reference Frame : NAM14
Format Version,1.1.0
4-character ID,YFB1
Station name,Iqaluit_WAAS
Begin Date, 2008-04-25
End Date, 2019-10-07
Release Date, 2019-10-08
Reference position, 63.7314902602 North Latitude, -68.5431821914 East Longitude, 9.58540 meters elevation,
Date, North (mm), East (mm), Vertical (mm), North Std. Deviation (mm), East Std. Deviation (mm),              Vertical Std. Deviation (mm), Quality,
2008-04-25,0.00, 0.00, 36.23, 7.08, 4.66, 23.66, repro,
2008-04-26,4.33, 0.72, 0.00, 2.87, 2.08, 10.08, repro,
2008-04-27,6.02, 0.75, 2.15, 2.48, 1.73, 8.53, repro,
2008-04-28,6.47, -0.58, -3.54, 2.39, 1.66, 8.39, repro,
2008-04-29,6.27, -2.43, 3.16, 2.53, 1.78, 8.69, repro,
2008-04-30,7.20, 0.34, -0.38, 2.30, 1.57, 7.77, repro,
2008-05-01,6.87, 0.17, -5.70, 2.29, 1.60, 8.00, repro,
2008-05-02,5.84, 1.53, 2.25, 2.39, 1.65, 8.16, repro,
2008-05-03,8.05, -0.59, 7.76, 2.44, 1.70, 8.10, repro,
2008-05-04,10.01, -0.74, 11.41, 2.36, 1.67, 8.33, repro,
2008-05-05,5.30, 0.33, 7.75, 2.40, 1.64, 8.17, repro,
2008-05-06,4.33, -1.67, 4.03, 2.39, 1.70, 8.20, repro,
2008-05-07,3.70, -1.00, 7.70, 2.40, 1.66, 8.10, repro,
2008-05-08,4.25, -0.36, 5.83, 2.22, 1.55, 7.70, repro,
2008-05-09,3.90, -0.97, 1.81, 2.24, 1.55, 7.74, repro,
2008-05-10,5.63, -1.53, 3.35, 2.18, 1.54, 7.59, repro,
2008-05-11,5.31, -0.41, 9.57, 2.21, 1.56, 7.73, repro,
2008-05-12,4.53, 1.57, 11.30, 2.24, 1.57, 7.66, repro,
2008-05-13,4.14, 1.25, 4.33, 2.33, 1.59, 7.87, repro,
2008-05-14,5.47, -0.54, 7.81, 2.26, 1.58, 7.65, repro,
2008-05-15,5.12, -0.52, 4.76, 2.19, 1.54, 7.63, repro,
2008-05-16,9.94, 0.85, 3.36, 2.21, 1.54, 7.69, repro,
2008-05-17,10.13, -0.98, 7.28, 2.25, 1.56, 7.78, repro,
2008-05-18,7.22, -0.83, 12.00, 2.20, 1.53, 7.62, repro,
2008-05-19,7.48, 0.08, 4.98, 2.38, 1.64, 7.93, repro,
2008-05-20,8.02, -1.79, 7.34, 2.51, 1.75, 8.42, repro,
2008-05-21,7.97, -0.41, 10.38, 2.41, 1.67, 8.04, repro,
2008-05-22,6.06, 0.07, 9.99, 2.67, 1.79, 8.64, repro,
2008-05-23,6.50, -0.40, 7.27, 2.59, 1.83, 8.61, repro,
2008-05-24,4.39, 1.03, 2.53, 2.31, 1.60, 7.87, repro,
2008-05-25,4.76, 0.39, 14.97, 2.44, 1.65, 8.30, repro,
2008-05-26,7.74, -0.02, 15.99, 2.20, 1.55, 7.61, repro,
2008-05-27,5.82, 0.73, 10.84, 2.27, 1.61, 7.87, repro,
2008-05-28,6.25, 0.70, 10.72, 2.59, 1.81, 8.58, repro,
2008-05-29,6.48, 1.10, 8.73, 2.33, 1.62, 7.85, repro,
2008-05-30,7.37, -0.23, 10.89, 2.27, 1.57, 7.69, repro,
2008-05-31,9.14, -0.47, 21.12, 2.32, 1.64, 8.02, repro,
2008-06-01,8.23, 0.27, 12.88, 2.32, 1.58, 7.86, repro,
2008-06-02,7.70, -0.08, 12.38, 2.32, 1.58, 7.79, repro,
2008-06-03,9.20, 1.43, 5.51, 2.32, 1.60, 7.93, repro,
2008-06-04,7.87, 1.42, 9.86, 2.30, 1.63, 7.69, repro,
2008-06-05,6.76, 1.84, 13.12, 2.20, 1.53, 7.55, repro,
2008-06-06,7.60, 1.73, 14.57, 2.30, 1.63, 8.03, repro,
2008-06-07,5.54, 2.73, 15.34, 2.72, 1.86, 9.68, repro,
2008-06-08,7.54, 0.38, 11.14, 2.47, 1.71, 8.14, repro,
2008-06-09,8.82, 2.72, 13.70, 2.40, 1.65, 7.96, repro,
2008-06-10,8.34, 0.54, 6.74, 2.21, 1.54, 7.59, repro,
2008-06-11,8.90, 1.05, 15.28, 2.30, 1.61, 7.89, repro,
2008-06-12,7.48, 0.84, 4.70, 2.39, 1.61, 7.99, repro,
2008-06-13,8.23, 0.95, 7.73, 2.25, 1.57, 7.71, repro,
2008-06-14,9.39, -0.39, 6.90, 2.26, 1.60, 8.00, repro,
2008-06-15,7.57, -0.59, 11.26, 2.37, 1.67, 8.80, repro,
2008-06-16,9.64, 0.84, 9.20, 2.51, 1.74, 8.46, repro,
2008-06-17,8.76, 1.06, 12.98, 2.54, 1.77, 8.70, repro,
2008-06-20,9.79, 0.82, 3.61, 2.33, 1.62, 7.93, repro,
2008-06-21,7.92, -1.11, 10.32, 2.34, 1.66, 7.98, repro,
2008-06-22,9.59, 0.14, 14.21, 2.26, 1.58, 7.79, repro,
2008-06-23,8.58, 0.11, 14.38, 2.29, 1.61, 7.92, repro,
2008-06-24,8.39, -0.50, 6.37, 2.25, 1.57, 7.69, repro,
2008-06-25,9.80, -0.63, 6.70, 2.40, 1.63, 8.11, repro,
2008-06-26,8.65, -1.76, 11.20, 2.40, 1.65, 8.21, repro,
2008-06-27,9.71, 0.01, 11.60, 2.38, 1.64, 7.98, repro,
2008-06-28,8.48, -0.59, 10.49, 2.22, 1.55, 7.72, repro,
2008-06-29,8.35, -1.19, 10.19, 2.37, 1.64, 8.26, repro,
2008-06-30,8.75, 0.12, 8.55, 2.46, 1.67, 8.26, repro,
2008-07-01,10.19, 1.18, 10.07, 2.21, 1.54, 7.62, repro,
2008-07-02,8.81, -0.39, 12.86, 2.23, 1.57, 7.70, repro,
2008-07-03,8.65, 1.04, 8.23, 2.27, 1.57, 7.82, repro,
2008-07-04,6.41, 0.64, 17.54, 2.19, 1.52, 7.58, repro,
2008-07-05,7.39, -0.19, 11.17, 2.26, 1.56, 7.69, repro,
2008-07-06,8.42, -0.06, 10.98, 2.32, 1.63, 8.14, repro,
2008-07-07,7.55, 1.13, 13.95, 2.23, 1.55, 7.74, repro,
2008-07-08,8.95, 1.32, 15.15, 2.23, 1.59, 7.78, repro,
2008-07-09,7.52, -1.27, 12.16, 2.21, 1.55, 7.61, repro,
2008-07-11,3.97, -0.92, 16.77, 2.29, 1.65, 8.10, repro,
2008-07-12,5.96, -1.22, 26.04, 2.62, 1.85, 9.29, repro,
2008-07-13,5.29, 1.27, 25.30, 2.59, 1.78, 8.57, repro,
2008-07-14,4.21, 0.05, 31.60, 2.69, 1.85, 9.73, repro,
2008-07-15,6.48, -0.05, 20.41, 2.41, 1.63, 8.67, repro,
2008-07-16,4.85, -0.82, 14.53, 2.27, 1.59, 7.77, repro,
2008-07-17,5.56, -2.01, 14.73, 2.36, 1.65, 8.26, repro,
2008-07-18,5.05, -2.19, 16.70, 2.29, 1.64, 7.90, repro,
2008-07-19,5.73, -0.95, 14.56, 2.24, 1.59, 7.72, repro,
2008-07-20,5.82, -0.15, 17.31, 2.25, 1.58, 7.80, repro,
2008-07-21,4.46, -0.54, 17.10, 2.25, 1.54, 7.65, repro,
2008-07-22,5.47, -0.11, 13.56, 2.42, 1.64, 8.07, repro,
2008-07-23,2.19, -1.97, 36.15, 2.57, 1.77, 8.86, repro,
2008-07-24,4.84, -2.57, 17.67, 2.31, 1.59, 8.06, repro,
2008-07-25,3.58, 2.05, 25.91, 3.14, 2.21, 11.39, repro,
2008-07-26,5.29, 0.12, 16.10, 2.25, 1.57, 7.76, repro,
2008-07-27,4.75, -0.62, 11.88, 2.48, 1.71, 8.44, repro,
2008-07-28,4.47, -0.00, 15.35, 2.25, 1.59, 8.04, repro,
2008-07-29,4.14, -1.54, 17.72, 2.23, 1.56, 8.03, repro,
2008-07-30,6.74, -0.95, 17.36, 2.36, 1.69, 8.32, repro,
2008-07-31,4.96, 0.01, 8.74, 2.20, 1.53, 7.63, repro,
2008-08-01,4.26, -1.04, 9.11, 2.31, 1.65, 8.21, repro,
2008-08-02,4.11, -0.22, 16.20, 2.23, 1.58, 7.77, repro,
2008-08-03,2.55, 0.37, 15.89, 2.23, 1.59, 7.69, repro,
2008-08-04,4.98, -0.83, 15.27, 3.04, 2.10, 9.89, repro,
2008-08-05,3.79, -0.01, 12.30, 2.24, 1.58, 7.72, repro,
2008-08-06,3.98, 1.99, 13.90, 2.26, 1.59, 7.83, repro,
2008-08-07,5.76, 0.52, 15.04, 2.40, 1.67, 8.60, repro,
2008-08-08,3.83, -0.53, 10.82, 2.36, 1.64, 8.08, repro,
2008-08-09,4.36, 0.36, 19.98, 2.47, 1.69, 8.43, repro,
2008-08-10,1.66, 0.29, 15.83, 2.34, 1.69, 8.20, repro,
2008-08-11,3.49, -1.05, 14.09, 2.41, 1.71, 8.43, repro,
2008-08-12,2.44, -0.13, 19.02, 2.26, 1.61, 8.02, repro,
2008-08-13,2.37, 0.18, 27.66, 2.44, 1.72, 8.66, repro,
2008-08-14,0.68, 0.51, 11.26, 2.28, 1.63, 8.08, repro,
2008-08-15,4.21, 0.41, 17.49, 2.31, 1.65, 8.05, repro,
2008-08-16,1.76, -0.23, 24.21, 2.25, 1.56, 7.79, repro,
2008-08-17,3.61, 1.35, 17.61, 2.31, 1.61, 8.04, repro,
2008-08-18,2.41, 0.78, 23.11, 2.50, 1.79, 8.59, repro,
2008-08-19,4.42, 2.23, 15.72, 2.32, 1.60, 7.93, repro,
2008-08-21,3.35, 1.14, 19.25, 2.23, 1.55, 7.64, repro,
2008-08-22,4.03, 1.16, 16.59, 2.27, 1.59, 7.84, repro,
2008-08-23,2.86, 0.93, 19.89, 2.30, 1.62, 7.96, repro,
2008-08-24,4.31, 0.77, 20.24, 2.35, 1.65, 8.04, repro,
2008-08-25,2.92, 1.00, 23.33, 2.28, 1.62, 8.08, repro,
2008-08-26,4.10, 1.53, 17.29, 2.25, 1.56, 7.75, repro,
2008-08-27,3.82, 0.81, 17.74, 2.36, 1.64, 8.26, repro,
2008-08-28,1.80, -0.22, 20.07, 2.55, 1.76, 8.98, repro,
2008-08-29,5.99, 0.03, 17.01, 2.36, 1.64, 8.19, repro,
2008-08-30,5.58, 1.07, 13.81, 2.45, 1.67, 8.45, repro,
2008-08-31,4.01, -0.19, 22.00, 2.79, 1.85, 8.92, repro,
2008-09-01,5.97, 0.12, 21.01, 2.39, 1.62, 8.23, repro,
2008-09-02,5.24, -0.38, 15.88, 2.41, 1.65, 8.32, repro,
2008-09-03,5.69, -0.07, 18.38, 2.37, 1.64, 8.11, repro,
2008-09-04,5.48, -1.62, 22.09, 2.84, 1.99, 9.76, repro,
2008-09-05,4.97, 0.11, 21.35, 2.51, 1.70, 8.56, repro,
2008-09-06,4.46, 1.51, 24.63, 2.41, 1.66, 8.25, repro,
2008-09-07,5.46, -0.80, 24.43, 2.47, 1.73, 8.70, repro,
2008-09-09,5.22, -0.82, 16.99, 2.43, 1.69, 8.76, repro,
2008-09-10,6.27, -0.83, 19.09, 2.40, 1.69, 8.48, repro,
2008-09-11,5.31, 0.41, 23.47, 2.80, 1.89, 9.24, repro,
2008-09-12,4.71, -0.03, 25.92, 2.47, 1.73, 8.52, repro,
2008-09-13,4.89, 0.09, 24.17, 2.39, 1.61, 8.05, repro,
2008-09-14,4.84, -0.50, 19.98, 2.32, 1.60, 7.96, repro,
2008-09-15,5.74, -0.71, 17.59, 2.58, 1.75, 8.62, repro,
2008-09-16,4.98, 0.18, 25.13, 2.45, 1.65, 8.10, repro,
2008-09-17,8.70, 0.87, 20.83, 2.54, 1.80, 8.81, repro,
2008-09-18,6.61, 2.24, 18.57, 2.59, 1.80, 9.07, repro,
2008-09-19,3.82, 0.10, 14.51, 2.30, 1.62, 7.95, repro,
2008-09-20,5.34, -0.98, 20.40, 2.31, 1.63, 8.03, repro,
2008-09-21,4.51, 0.54, 9.63, 2.26, 1.58, 7.78, repro,
2008-09-22,4.77, -0.15, 15.17, 2.36, 1.69, 8.39, repro,
2008-09-23,5.76, 1.73, 12.98, 2.24, 1.57, 7.77, repro,
2008-09-25,5.57, 1.82, 13.68, 2.31, 1.63, 7.97, repro,
2008-09-26,4.85, 1.18, 18.85, 2.30, 1.61, 8.09, repro,
2008-09-27,3.75, 2.08, 24.98, 2.33, 1.63, 8.09, repro,
2008-09-28,6.28, 3.08, 14.22, 2.24, 1.61, 8.06, repro,
2008-09-29,6.11, 1.97, 9.61, 2.26, 1.55, 7.76, repro,
2008-09-30,6.44, 1.23, 13.36, 2.28, 1.60, 7.83, repro,
2008-10-01,5.47, 2.12, 12.66, 2.38, 1.60, 8.11, repro,
2008-10-02,6.35, -1.26, 23.90, 2.65, 2.00, 10.16, repro,
2008-10-03,7.59, 2.28, 21.92, 2.55, 1.78, 8.91, repro,
2008-10-04,4.42, 2.08, 22.63, 2.38, 1.66, 8.20, repro,
2008-10-05,3.73, 2.13, 23.77, 2.28, 1.59, 7.96, repro,
2008-10-06,2.76, 2.68, 19.37, 2.31, 1.60, 8.01, repro,
2008-10-07,4.76, 1.80, 16.35, 2.26, 1.57, 7.87, repro,
2008-10-08,4.75, 0.95, 12.15, 2.36, 1.65, 8.26, repro,
2008-10-09,5.18, 1.64, 15.26, 2.19, 1.55, 7.65, repro,
2008-10-10,4.38, 1.30, 15.28, 2.26, 1.60, 7.86, repro,
2008-10-11,2.31, 0.13, 17.21, 2.69, 1.85, 9.75, repro,
2008-10-12,4.97, 2.09, 11.33, 2.43, 1.74, 8.76, repro,
2008-10-13,8.35, 3.45, 19.45, 4.52, 3.09, 14.63, repro,
2008-10-24,3.02, 7.92, 20.59, 7.00, 4.05, 21.36, repro,
2008-10-25,5.52, 6.29, 25.60, 4.69, 3.49, 16.62, repro,
2008-10-26,8.04, 6.29, 36.08, 5.85, 4.06, 19.49, repro,
2008-10-27,7.30, 0.29, 17.49, 2.20, 1.53, 7.69, repro,
2008-10-28,3.47, 2.12, 14.53, 2.40, 1.66, 8.41, repro,
2008-10-29,3.57, 5.88, 20.37, 7.73, 5.46, 27.72, repro,
2008-10-30,4.37, 4.62, 7.13, 2.67, 1.81, 9.06, repro,
2008-10-31,3.00, 3.91, 8.95, 2.23, 1.59, 7.92, repro,
2008-11-01,2.26, 3.74, 13.00, 2.19, 1.56, 7.68, repro,
2008-11-02,-0.90, 1.38, 5.79, 4.76, 3.45, 16.69, repro,
2008-11-03,3.22, 4.05, 11.02, 4.84, 3.20, 16.82, repro,
2008-11-04,-5.39, 6.15, 19.97, 5.31, 4.10, 17.80, repro,
2008-11-06,1.24, 2.90, 8.26, 2.55, 1.79, 9.06, repro,
2008-11-07,3.08, 1.58, 6.04, 2.31, 1.58, 8.43, repro,
2008-11-08,6.66, 2.54, 7.02, 2.54, 1.78, 8.86, repro,
2008-11-09,6.20, 2.84, 10.93, 3.88, 2.55, 12.61, repro,
2008-11-10,2.51, 2.10, 8.93, 2.17, 1.52, 7.62, repro,
2008-11-11,2.26, 2.39, 9.59, 2.16, 1.48, 7.57, repro,
2008-11-12,2.36, 1.71, 16.15, 2.23, 1.54, 7.78, repro,
2008-11-17,3.38, 2.43, 8.94, 2.24, 1.55, 7.70, repro,
2008-11-18,5.56, 0.04, 15.36, 5.54, 3.26, 17.18, repro,
2008-11-20,4.69, 0.13, -3.79, 2.26, 1.56, 7.91, repro,
2008-11-21,4.53, 2.07, 5.91, 2.25, 1.55, 7.63, repro,
2008-11-22,1.58, 0.67, 2.42, 2.19, 1.53, 7.80, repro,
2008-11-23,4.59, 1.50, 3.21, 2.40, 1.63, 7.98, repro,
2008-11-25,2.14, 0.20, 15.61, 2.48, 1.75, 8.89, repro,
2008-11-28,3.15, 2.57, 9.95, 2.26, 1.58, 7.94, repro,
2008-11-29,4.64, 2.61, 13.48, 2.16, 1.53, 7.73, repro,
2008-11-30,2.78, 2.58, 12.95, 2.21, 1.52, 7.56, repro,
2008-12-01,4.60, 2.14, 17.44, 2.21, 1.51, 7.66, repro,
2008-12-15,5.14, -0.63, 12.61, 2.29, 1.60, 7.95, repro,
2008-12-16,4.66, 2.69, 8.24, 4.27, 2.77, 14.37, repro,
2008-12-17,3.72, 2.17, 15.41, 2.22, 1.58, 7.84, repro,
2008-12-18,5.76, 0.55, 16.53, 2.13, 1.48, 7.46, repro,
2008-12-19,5.67, 0.88, 18.44, 2.40, 1.68, 8.32, repro,
2008-12-20,3.48, 1.44, 19.83, 2.13, 1.47, 7.43, repro,
2008-12-21,4.43, 2.65, 18.71, 2.19, 1.51, 7.73, repro,
2008-12-22,4.34, 3.77, 16.49, 2.20, 1.50, 7.65, repro,
2008-12-23,3.51, 2.62, 25.16, 2.48, 1.71, 8.76, repro,
2008-12-24,4.51, 2.52, 32.27, 2.27, 1.57, 8.01, repro,
2008-12-25,5.62, 2.67, 24.68, 2.16, 1.50, 7.56, repro,
2008-12-26,2.94, 2.54, 24.60, 2.20, 1.53, 7.63, repro,
2008-12-27,5.85, 2.00, 19.19, 2.21, 1.52, 7.66, repro,
2008-12-28,6.78, 3.60, 18.90, 2.16, 1.50, 7.48, repro,
2008-12-29,7.75, 5.30, 15.52, 2.17, 1.50, 7.52, repro,
2008-12-30,3.90, 2.12, 15.83, 2.16, 1.50, 7.55, repro,
2008-12-31,3.13, 3.50, 11.38, 2.41, 1.68, 8.61, repro,
2009-01-01,4.18, 2.50, 13.86, 2.41, 1.64, 8.31, repro,
2009-01-02,4.47, 4.09, 11.77, 2.29, 1.57, 8.00, repro,
2009-01-03,5.29, 4.04, 5.79, 2.43, 1.70, 8.56, repro,
2009-01-04,4.39, 3.07, 13.74, 2.24, 1.55, 7.80, repro,
2009-01-05,5.32, 2.90, 18.23, 2.25, 1.56, 7.78, repro,
2009-01-06,5.36, 2.43, 18.25, 2.25, 1.54, 7.75, repro,
2009-01-07,4.40, 1.07, 21.33, 2.25, 1.56, 7.69, repro,
2009-01-08,4.68, 3.63, 15.41, 2.28, 1.58, 7.84, repro,
2009-01-09,3.53, 2.60, 23.25, 2.55, 1.82, 9.04, repro,
2009-01-10,4.53, 2.46, 16.72, 2.41, 1.68, 8.29, repro,
2009-01-11,3.26, 2.63, 23.13, 2.24, 1.59, 7.70, repro,
2009-01-12,2.89, 2.35, 21.30, 2.30, 1.60, 8.10, repro,
2009-01-13,4.28, 2.54, 16.10, 2.27, 1.59, 7.79, repro,
2009-01-14,6.84, 2.95, 17.31, 2.49, 1.79, 8.74, repro,
2009-01-15,5.08, 3.17, 19.84, 2.68, 1.84, 9.15, repro,
2009-01-16,6.55, 2.40, 17.33, 2.23, 1.55, 7.77, repro,
2009-01-17,4.69, 3.08, 18.47, 2.31, 1.59, 7.93, repro,
2009-01-18,5.64, 1.64, 18.96, 2.25, 1.59, 7.87, repro,
2009-01-19,6.12, 2.27, 16.90, 2.45, 1.73, 8.49, repro,
2009-01-20,5.35, 3.42, 17.87, 2.35, 1.65, 8.08, repro,
2009-01-21,5.65, 0.49, 19.39, 3.38, 2.36, 11.31, repro,
2009-01-22,4.60, 2.18, 17.09, 2.29, 1.61, 8.07, repro,
2009-01-23,2.96, 2.88, 13.36, 2.23, 1.53, 7.66, repro,
2009-01-24,4.67, 2.87, 8.00, 2.26, 1.58, 7.75, repro,
2009-01-25,4.91, 1.92, 15.53, 2.24, 1.55, 7.79, repro,
2009-01-26,4.21, 3.26, 14.85, 2.32, 1.65, 8.43, repro,
2009-01-27,6.54, 3.32, 19.92, 2.22, 1.55, 7.70, repro,
2009-01-28,3.94, 3.66, 19.50, 2.19, 1.51, 7.56, repro,
2009-01-29,6.14, 4.36, 19.58, 2.25, 1.54, 7.71, repro,
2009-01-30,6.54, 3.28, 12.01, 2.22, 1.50, 7.59, repro,
2009-01-31,7.27, 1.13, 11.65, 2.29, 1.56, 7.92, repro,
2009-02-01,8.39, 3.67, 6.64, 2.20, 1.51, 7.64, repro,
2009-02-02,7.06, 2.02, 8.43, 2.19, 1.53, 7.59, repro,
2009-02-03,3.63, 2.81, 8.20, 2.24, 1.57, 7.90, repro,
2009-02-04,7.08, 3.56, 19.02, 2.48, 1.80, 9.55, repro,
2009-02-05,4.27, 4.29, 16.84, 2.32, 1.57, 8.30, repro,
2009-02-06,5.39, 4.12, 19.81, 2.37, 1.68, 8.44, repro,
2009-02-07,5.33, 3.23, 19.77, 2.23, 1.55, 7.76, repro,
2009-02-08,3.26, 3.52, 23.47, 2.20, 1.56, 7.81, repro,
2009-02-09,4.93, 4.82, 17.94, 2.29, 1.62, 8.07, repro,
2009-02-10,4.67, 3.15, 15.44, 2.19, 1.49, 7.62, repro,
2009-02-11,5.38, 3.10, 11.78, 2.46, 1.66, 8.49, repro,
2009-02-12,6.06, 3.22, 10.21, 2.25, 1.52, 7.75, repro,
2009-02-13,5.03, 2.48, 4.80, 2.16, 1.50, 7.52, repro,
2009-02-14,5.80, 1.90, 5.93, 2.40, 1.65, 8.41, repro,
2009-02-15,5.49, 2.46, 5.45, 2.40, 1.69, 8.28, repro,
2009-02-16,4.54, 3.44, 11.89, 2.31, 1.59, 8.00, repro,
2009-02-17,3.05, 3.66, 11.49, 2.20, 1.49, 7.56, repro,
2009-02-18,4.78, 3.73, 7.14, 2.47, 1.75, 8.74, repro,
2009-02-19,3.10, 2.40, 11.12, 2.19, 1.53, 7.56, repro,
2009-02-20,5.68, 3.55, 16.40, 2.24, 1.53, 7.73, repro,
2009-02-21,3.54, 3.19, 8.67, 2.22, 1.53, 7.72, repro,
2009-02-22,3.24, 2.39, 3.17, 2.18, 1.48, 7.52, repro,
2009-02-23,2.83, 3.61, 3.02, 2.21, 1.52, 7.60, repro,
2009-02-24,5.57, 2.82, 12.93, 2.42, 1.74, 8.39, repro,
2009-02-25,4.87, 4.36, 3.60, 229.05, 52.99, 644.56, repro,
2009-02-26,4.01, 2.53, 10.09, 2.28, 1.53, 7.84, repro,
2009-02-27,4.31, 3.22, 4.24, 2.48, 1.68, 8.81, repro,
2009-02-28,3.90, 2.60, 3.73, 2.49, 1.76, 8.47, repro,
2009-03-01,3.79, 3.70, 1.10, 2.28, 1.61, 7.97, repro,
2009-03-02,4.58, 2.50, -2.43, 2.22, 1.56, 7.62, repro,
2009-03-03,4.11, 1.28, -0.44, 2.27, 1.60, 7.96, repro,
2009-03-04,3.50, 2.80, -2.99, 2.44, 1.69, 8.33, repro,
2009-03-05,4.73, 3.48, 1.33, 2.26, 1.56, 7.76, repro,
2009-03-06,5.51, 4.62, 13.03, 2.44, 1.70, 8.39, repro,
2009-03-07,4.19, 3.08, 11.03, 2.20, 1.53, 7.62, repro,
2009-03-08,3.26, 2.93, 6.93, 2.29, 1.60, 7.94, repro,
2009-03-09,3.54, 2.60, 4.22, 2.22, 1.52, 7.63, repro,
2009-03-10,2.12, 2.53, 10.17, 2.37, 1.70, 8.42, repro,
2009-03-11,5.83, 3.35, 10.62, 2.31, 1.57, 8.24, repro,
2009-03-12,5.90, 4.64, 9.47, 2.39, 1.63, 8.20, repro,
2009-03-13,1.03, 3.16, 12.03, 2.57, 1.82, 8.66, repro,
2009-03-14,5.03, 3.02, 15.04, 2.39, 1.63, 8.27, repro,
2009-03-15,3.72, 2.85, 5.50, 2.30, 1.65, 8.07, repro,
2009-03-16,4.20, 4.82, 1.89, 2.32, 1.61, 7.97, repro,
2009-03-17,2.69, 4.61, 1.11, 2.22, 1.52, 7.65, repro,
2009-03-18,3.69, 3.65, 2.65, 2.19, 1.51, 7.59, repro,
2009-03-19,1.25, 2.97, -0.13, 2.24, 1.55, 7.76, repro,
2009-03-20,0.64, 3.77, 7.97, 2.24, 1.55, 7.73, repro,
2009-03-21,2.83, 5.45, 5.33, 2.34, 1.59, 8.18, repro,
2009-03-22,1.17, 4.30, -2.83, 2.22, 1.54, 7.83, repro,
2009-03-23,1.93, 4.75, -1.27, 2.28, 1.55, 7.80, repro,
2009-03-24,1.31, 4.36, -0.44, 2.49, 1.66, 8.30, repro,
2009-03-25,-0.66, 4.29, 4.02, 2.36, 1.65, 8.08, repro,
2009-03-26,2.15, 4.72, 7.98, 2.36, 1.59, 7.99, repro,
2009-03-27,2.84, 4.68, 6.97, 2.21, 1.53, 7.63, repro,
2009-03-28,2.29, 4.70, 3.55, 2.18, 1.50, 7.55, repro,
2009-03-29,4.40, 4.66, -0.69, 2.19, 1.52, 7.59, repro,
2009-03-30,2.30, 5.59, 4.75, 2.21, 1.51, 7.58, repro,
2009-03-31,-0.55, 4.93, 2.18, 2.28, 1.57, 7.95, repro,
2009-04-01,1.61, 4.30, 6.00, 2.23, 1.54, 7.61, repro,
2009-04-02,0.06, 4.79, 8.59, 2.24, 1.59, 8.08, repro,
2009-04-03,0.66, 4.40, 1.92, 2.21, 1.54, 7.64, repro,
2009-04-04,1.44, 4.25, -5.14, 2.32, 1.58, 7.85, repro,
2009-04-05,0.80, 4.61, -6.85, 2.27, 1.56, 7.73, repro,
2009-04-06,1.28, 4.01, -3.65, 2.33, 1.54, 7.82, repro,
2009-04-07,1.44, 4.04, -1.83, 2.28, 1.56, 7.68, repro,
2009-04-08,5.33, 5.49, 5.11, 2.19, 1.52, 7.56, repro,
2009-04-09,2.13, 5.58, 9.70, 2.55, 1.74, 9.07, repro,
2009-04-10,2.56, 5.08, 1.59, 2.34, 1.61, 7.92, repro,
2009-04-11,1.49, 4.23, -2.33, 2.45, 1.68, 8.18, repro,
2009-04-12,1.71, 2.52, -2.10, 2.42, 1.69, 8.29, repro,
2009-04-13,0.75, 3.99, 0.37, 2.42, 1.65, 8.10, repro,
2009-04-14,2.97, 2.93, -1.77, 2.32, 1.59, 7.82, repro,
2009-04-15,4.74, 3.63, -15.00, 2.47, 1.66, 8.43, repro,
2009-04-16,1.19, 2.87, -2.10, 2.55, 1.70, 8.51, repro,
2009-04-17,-0.33, 2.87, -6.61, 2.20, 1.52, 7.55, repro,
2009-04-18,0.17, 2.26, 3.70, 2.38, 1.61, 8.00, repro,
2009-04-19,0.19, 4.97, 7.76, 2.35, 1.58, 7.90, repro,
2009-04-24,2.06, 5.51, 10.21, 2.15, 1.50, 7.40, repro,
2009-04-25,-3.10, 7.65, 14.60, 12.30, 16.62, 26.34, repro,
2009-04-26,-4.47, 3.70, 7.81, 12.21, 16.36, 26.46, repro,
2009-04-27,0.51, 4.03, 5.25, 2.32, 1.56, 7.87, repro,
2009-04-28,1.71, 4.65, 1.85, 4.08, 2.84, 13.12, repro,
2009-04-29,0.09, 3.24, 5.00, 2.33, 1.59, 8.03, repro,
2009-04-30,0.01, 4.31, 7.34, 2.32, 1.57, 7.88, repro,
2009-05-01,0.03, 4.76, 11.09, 2.20, 1.52, 7.52, repro,
2009-05-04,1.35, 3.46, 8.99, 2.22, 1.54, 7.66, repro,
2009-05-05,0.52, 5.00, 5.52, 2.19, 1.51, 7.48, repro,
2009-05-06,0.57, 4.17, 6.46, 2.55, 1.75, 8.39, repro,
2009-05-07,0.64, 4.37, 4.23, 2.27, 1.55, 7.84, repro,
2009-05-08,3.23, 2.84, -0.34, 2.46, 1.70, 8.38, repro,
2009-05-09,1.45, 3.11, 4.05, 2.28, 1.58, 7.83, repro,
2009-05-10,-0.12, 4.27, 5.85, 2.36, 1.59, 7.85, repro,
2009-05-11,0.33, 5.94, 7.42, 2.40, 1.60, 7.87, repro,
2009-05-12,1.56, 4.30, 4.69, 2.30, 1.58, 7.85, repro,
2009-05-13,2.60, 2.56, 9.21, 2.40, 1.61, 7.94, repro,
2009-05-14,2.29, 4.04, 8.42, 2.44, 1.70, 8.22, repro,
2009-05-15,1.38, 2.86, 1.12, 2.29, 1.57, 7.79, repro,
2009-05-16,3.81, 3.68, 8.56, 2.25, 1.56, 7.64, repro,
2009-05-17,4.76, 4.25, 5.79, 2.37, 1.59, 7.83, repro,
2009-05-18,3.37, 3.04, 7.78, 2.34, 1.60, 7.87, repro,
2009-05-19,2.59, 4.29, 3.86, 2.40, 1.65, 8.06, repro,
2009-05-20,4.56, 2.79, 11.98, 2.18, 1.51, 7.51, repro,
2009-05-21,3.03, 3.81, 11.81, 2.20, 1.51, 7.59, repro,
2009-05-22,3.80, 3.45, 9.58, 2.19, 1.51, 7.56, repro,
2009-05-23,3.43, 3.20, 3.34, 2.24, 1.52, 7.70, repro,
2009-05-24,2.16, 3.54, 7.25, 2.30, 1.58, 7.78, repro,
2009-05-25,2.04, 4.17, 7.53, 2.24, 1.54, 7.72, repro,
2009-05-26,0.32, 3.38, 11.96, 2.33, 1.60, 7.95, repro,
2009-05-27,2.28, 3.40, 7.35, 2.25, 1.55, 7.94, repro,
2009-05-28,2.73, 2.46, 9.90, 2.25, 1.56, 7.76, repro,
2009-05-29,1.83, 3.69, 5.92, 2.25, 1.57, 7.66, repro,
2009-05-30,1.70, 4.04, 4.70, 2.55, 1.76, 8.39, repro,
2009-05-31,5.43, 3.18, -0.21, 2.24, 1.57, 7.73, repro,
2009-06-01,2.96, 5.08, 4.70, 2.30, 1.60, 7.90, repro,
2009-06-02,6.58, 5.58, 1.95, 2.21, 1.53, 7.63, repro,
2009-06-03,3.65, 5.90, 10.95, 2.21, 1.53, 7.59, repro,
2009-06-04,7.16, 5.25, 7.03, 2.38, 1.61, 8.25, repro,
2009-06-05,4.63, 3.58, 5.34, 2.54, 1.77, 8.75, repro,
2009-06-06,4.58, 3.62, 13.62, 2.34, 1.62, 8.15, repro,
2009-06-07,4.58, 2.64, 7.75, 2.20, 1.53, 7.61, repro,
2009-06-08,6.06, 1.84, 0.62, 2.28, 1.57, 7.79, repro,
2009-06-09,4.39, 2.28, 8.11, 2.19, 1.53, 7.50, repro,
2009-06-10,4.02, 3.56, 6.72, 2.20, 1.54, 7.64, repro,
2009-06-11,4.31, 4.39, 10.85, 2.24, 1.54, 7.62, repro,
2009-06-12,3.67, 5.76, 8.33, 2.23, 1.52, 7.59, repro,
2009-06-13,4.49, 4.33, 9.05, 2.20, 1.52, 7.57, repro,
2009-06-14,4.47, 3.57, 14.16, 2.21, 1.51, 7.45, repro,
2009-06-16,6.88, 3.48, 14.50, 2.23, 1.54, 7.62, repro,
2009-06-17,5.23, 3.93, 19.82, 2.19, 1.53, 7.59, repro,
2009-06-18,4.29, 4.29, 18.42, 2.22, 1.53, 7.58, repro,
2009-06-19,4.67, 3.83, 8.91, 2.31, 1.61, 7.78, repro,
2009-06-20,4.20, 3.86, 9.19, 2.28, 1.57, 7.68, repro,
2009-06-21,3.97, 4.36, 5.38, 2.59, 1.70, 8.75, repro,
2009-06-22,2.52, 3.80, 12.39, 2.19, 1.52, 7.55, repro,
2009-06-23,1.74, 3.98, 18.33, 2.22, 1.55, 7.67, repro,
2009-06-24,1.21, 4.50, 16.38, 2.43, 1.61, 8.19, repro,
2009-06-25,1.20, 5.06, 14.82, 2.31, 1.56, 7.81, repro,
2009-06-26,1.79, 3.32, 10.66, 2.29, 1.57, 7.75, repro,
2009-06-27,-0.28, 2.68, 8.09, 2.34, 1.58, 7.82, repro,
2009-06-28,1.25, 2.80, 14.59, 2.55, 1.75, 8.38, repro,
2009-06-29,1.39, 3.60, 11.33, 2.35, 1.62, 8.22, repro,
2009-06-30,1.12, 3.86, 12.17, 2.36, 1.60, 7.86, repro,
2009-07-01,-1.05, 2.82, 9.02, 2.37, 1.60, 8.11, repro,
2009-07-02,2.04, 2.14, 9.87, 2.46, 1.69, 8.44, repro,
2009-07-03,-0.02, 2.15, 7.82, 2.23, 1.57, 7.73, repro,
2009-07-04,-0.17, 1.15, 9.58, 2.38, 1.67, 8.29, repro,
2009-07-05,-0.61, 1.89, 12.13, 2.36, 1.62, 7.95, repro,
2009-07-06,-0.98, 2.21, 11.07, 2.27, 1.58, 7.72, repro,
2009-07-07,-1.70, 2.54, 18.26, 2.23, 1.55, 7.62, repro,
2009-07-08,-1.47, 0.54, 18.30, 2.41, 1.63, 7.98, repro,
2009-07-09,-2.30, 0.64, 15.95, 2.22, 1.53, 7.60, repro,
2009-07-10,1.47, 1.13, 15.11, 2.27, 1.57, 7.80, repro,
2009-07-11,-0.86, 1.80, 17.13, 2.24, 1.54, 7.66, repro,
2009-07-12,-0.25, 1.90, 15.88, 2.26, 1.57, 7.82, repro,
2009-07-13,-2.42, 1.36, 13.91, 2.42, 1.66, 8.12, repro,
2009-07-14,-1.94, 1.97, 15.74, 2.35, 1.61, 8.10, repro,
2009-07-15,0.67, 1.31, 17.83, 2.28, 1.55, 7.80, repro,
2009-07-16,-1.24, 1.68, 14.04, 2.22, 1.54, 7.71, repro,
2009-07-17,-1.71, 0.85, 8.19, 2.21, 1.51, 7.53, repro,
2009-07-18,-1.23, 0.64, 8.74, 2.26, 1.55, 7.75, repro,
2009-07-19,-3.04, 2.12, 12.34, 2.26, 1.54, 7.62, repro,
2009-07-20,-1.50, 1.51, 15.42, 2.28, 1.62, 7.83, repro,
2009-07-21,-2.30, 1.59, 9.73, 2.22, 1.53, 7.56, repro,
2009-07-22,-4.44, 0.82, 16.67, 2.58, 1.73, 8.52, repro,
2009-07-23,-1.25, 1.10, 9.98, 2.27, 1.55, 7.68, repro,
2009-07-24,-2.58, 1.07, 19.86, 2.36, 1.62, 7.93, repro,
2009-07-25,-1.85, 1.46, 19.41, 2.35, 1.61, 8.10, repro,
2009-07-26,-4.10, 1.63, 15.08, 2.28, 1.54, 7.83, repro,
2009-07-27,-3.56, 0.96, 16.15, 2.31, 1.60, 7.70, repro,
2009-07-28,-3.67, 0.29, 18.32, 2.30, 1.58, 7.74, repro,
2009-07-29,-4.00, -0.07, 19.07, 2.28, 1.57, 7.68, repro,
2009-07-30,-3.74, 1.70, 18.21, 2.26, 1.58, 7.77, repro,
2009-07-31,-2.48, 2.17, 23.52, 2.31, 1.57, 7.72, repro,
2009-08-01,-4.20, 0.66, 19.91, 2.23, 1.54, 7.64, repro,
2009-08-02,-3.53, 0.16, 18.44, 2.26, 1.57, 7.59, repro,
2009-08-03,-3.59, 0.86, 21.20, 2.33, 1.59, 7.81, repro,
2009-08-04,-2.69, 0.08, 13.39, 2.27, 1.54, 7.57, repro,
2009-08-05,-3.10, 0.26, 15.73, 2.53, 1.77, 8.99, repro,
2009-08-06,-4.47, 0.06, 26.79, 2.30, 1.55, 7.75, repro,
2009-08-07,-4.36, 0.89, 14.99, 2.43, 1.70, 8.32, repro,
2009-08-08,-4.56, 1.39, 23.98, 2.26, 1.56, 8.10, repro,
2009-08-09,-2.54, 0.76, 14.52, 2.35, 1.69, 8.36, repro,
2009-08-10,-4.15, 0.23, 13.55, 2.28, 1.55, 7.64, repro,